Regional Weather Roundup
Issued by NWS

Home | Current Version | Previous Version | Text Only | Print | Product List | Glossary On
Versions: 1 2 3 4 5 6 7 8 9 10 11 12 13 14 15 16 17 18 19 20 21 22 23 24 25 26 27 28 29 30 31 32 33 34 35 36 37 38 39 40 41 42 43 44 45 46 47 48 49 50
000
ASUS45 KPSR 010900
RWRAZ

PRELIMINARY ARIZONA REGIONAL HOURLY WEATHER ROUNDUP
NATIONAL WEATHER SERVICE PHOENIX AZ
200 AM MST FRI AUG 01 2014

NOTE: FAIR INDICATES FEW OR NO CLOUDS BELOW 12,000 FEET WITH NO
SIGNIFICANT WEATHER AND/OR OBSTRUCTIONS TO VISIBILITY.

AZZ001>003-036-011000-
NORTHWEST ARIZONA

CITY           SKY/WX    TMP DP  RH WIND       PRES   REMARKS
KINGMAN        PTCLDY    80  52  37 SE20      30.02F
$$

AZZ004>008-015-016-018-011000-
NORTH CENTRAL ARIZONA

CITY           SKY/WX    TMP DP  RH WIND       PRES   REMARKS
GRAND CANYON   CLOUDY    59  52  77 CALM      30.32F
WILLIAMS       MOCLDY    57  50  77 S10       30.35S
PRESCOTT       CLOUDY    68  56  65 N8        30.18R
FLAGSTAFF      NOT AVBL
PAYSON         CLOUDY    70  52  52 S3        30.21F
PAGE           CLOUDY    76  49  38 VRB3      30.15F
$$

AZZ009>014-017-011000-
NORTHEAST ARIZONA

CITY           SKY/WX    TMP DP  RH WIND       PRES   REMARKS
WINSLOW        NOT AVBL
SAINT JOHNS    CLOUDY    65  59  81 N7        30.22S
WINDOW ROCK    CLOUDY    60  55  83 CALM      30.30F
$$

AZZ023-011000-
GREATER PHOENIX AREA

CITY           SKY/WX    TMP DP  RH WIND       PRES   REMARKS
PHOENIX        CLOUDY    85  67  54 S10       29.92R
BUCKEYE          N/A     77  70  78 NE3       29.93R
LUKE AFB       NOT AVBL
DEER VALLEY    CLOUDY    86  60  41 SE7       29.90F
SCOTTSDALE     CLOUDY    87  62  43 SE3       29.94S
$$

AZZ027-028-011000-
SOUTHWEST MARICOPA COUNTY AND PINAL COUNTY

CITY           SKY/WX    TMP DP  RH WIND       PRES   REMARKS
CASA GRANDE    CLOUDY    84  64  51 NW9G16    29.99S
$$

AZZ503-504-507>509-011000-
SOUTHEAST ARIZONA

CITY           SKY/WX    TMP DP  RH WIND       PRES   REMARKS
TUCSON         CLOUDY    84  59  42 N7        30.05R
DAVIS-MONTHAN  TSTM      77  64  65 NE17      30.03S
NOGALES        CLOUDY    74  61  63 E3        30.11S
SIERRA VISTA   CLOUDY    70  63  78 NE3       30.19R
SAFFORD        CLOUDY    73  65  75 NE5       30.07F
$$

AZZ020-021-025-026-031-011000-
SOUTHWEST ARIZONA

CITY           SKY/WX    TMP DP  RH WIND       PRES   REMARKS
YUMA           CLOUDY    92  67  43 SE20      29.80R
$$

CAZ031-033-041-043-047-048-061-011000-
SOUTHERN CALIFORNIA

CITY           SKY/WX    TMP DP  RH WIND       PRES   REMARKS
DOWNTOWN L.A.  CLEAR     68  61  78 CALM      29.91F
L.A. AIRPORT   PTCLDY    68  63  84 CALM      29.92F
SAN DIEGO      CLOUDY    70  62  76 S3        29.93F
BURBANK        CLEAR     68  60  75 CALM      29.92F
ONTARIO        CLEAR     72  58  61 W5        29.92F
RIVERSIDE      CLEAR     71  61  70 W3        29.92F
PALM SPRINGS   CLEAR     94  55  26 NW8       29.80F
EL CENTRO NAS  CLEAR     89  75  63 SE5       29.74R
IMPERIAL       CLEAR     89  75  63 SE9       29.74R
BLYTHE           N/A    N/A N/A N/A MISG      29.80R
$$

NVZ020-UTZ003-011000-
SOUTHERN NEVADA-UTAH

CITY           SKY/WX    TMP DP  RH WIND       PRES   REMARKS
LAS VEGAS      NOT AVBL
SALT LAKE CITY PTCLDY    68  54  60 S6        30.12S
$$

NMZ009-TXZ055-011000-
NEW MEXICO-WEST TEXAS

CITY           SKY/WX    TMP DP  RH WIND       PRES   REMARKS
ALBUQUERQUE    MOCLDY    64  54  69 E8        30.27F
EL PASO        CLOUDY    69  63  81 NE21G26   30.17R
$$


........................KEY........................
SKY/WX - SKY CONDITION/WEATHER
TMP    - TEMPERATURE IN FAHRENHEIT
DP     - DEW POINT IN FAHRENHEIT
RH     - RELATIVE HUMIDITY IN PERCENT
WIND   - DIRECTION AND SPEED IN MILES PER HOUR (MPH)
VRB    - VARIABLE WIND DIRECTION
PRES   - MEAN SEA LEVEL PRESSURE IN INCHES OF MERCURY
         F - FALLING PRESSURE   R - RISING PRESSURE
         S - STEADY PRESSURE
VSB    - VISIBILITY IN MILES
HX     - HEAT INDEX IN FAHRENHEIT
WCI    - WIND CHILL INDEX IN FAHRENHEIT
TC     - TEMPERATURE IN CELSIUS WHICH IS ALSO KNOWN AS
         TEMPERATURE IN CENTIGRADE
AFB    - AIR FORCE BASE
         LUKE AFB IS LUKE AIR FORCE BASE
         DAVIS-MONTHAN IS DAVIS-MONTHAN AIR FORCE BASE
NAS    - NAVAL AIR STATION
         EL CENTRO NAS IS EL CENTRO NAVAL AIR STATION
N/A    - NOT AVAILABLE


USA.gov is the U.S. government's official web portal to all federal, state and local government web resources and services.